Location: La Murta
(41.2000°N, 9.1833°E)
Time: 12:28:38
(UTC+00:00)

Daily predictions for brighter satellites

Satellite Brightness Start Highest point End
(mag) Time Altitude Azimuth Time Altitude Azimuth Time Altitude Azimuth
NOAA 6 4.0 16:19:15 10° SSE 16:24:24 78° ENE 16:29:33 10° N
Okean O Rocket 2.1 16:20:32 10° SE 16:24:33 37° ENE 16:28:36 10° N
Cosmos 1782 3.9 16:22:02 10° SE 16:25:15 25° E 16:28:31 10° NE
H-2A R/B 3.4 16:25:13 10° S 16:29:01 62° W 16:32:53 10° NNW
ISS -1.5 16:28:29 10° NW 16:30:20 14° N 16:32:12 10° NNE
CRYOSAT 2 4.4 16:25:49 10° N 16:30:45 75° E 16:35:37 10° S
Cosmos 1933 3.3 16:26:49 10° S 16:30:49 66° E 16:34:52 10° NNE
Cosmos 1633 Rocket 3.2 16:27:47 10° N 16:32:03 51° E 16:36:16 10° SSE
Cosmos 2218 Rocket 4.1 16:32:35 10° N 16:38:36 53° E 16:44:36 10° SSE
Cosmos 2366 rocket 4.1 16:33:33 10° N 16:39:35 52° ENE 16:45:31 10° SSE
ERS-2 3.3 16:37:07 10° NE 16:40:12 25° E 16:43:15 10° SSE
Meteor 1-25 Rocket 4.2 16:34:46 10° N 16:40:23 65° ENE 16:46:04 10° SSE
Envisat 3.3 16:35:36 10° S 16:40:39 73° WSW 16:45:45 10° NNW
Lacrosse 5 rocket 2.9 16:43:45 10° W 16:46:45 23° NNW 16:49:41 10° NNE
Cosmos 773 Rocket 4.1 16:41:51 10° SSW 16:47:08 88° WNW 16:52:27 10° NNE
SL-23 DEB 3.9 16:44:40 10° WSW 16:48:04 81° NW 16:52:39 13° NE
NOSS 3-2 (A) 4.2 16:44:55 10° S 16:49:38 29° ESE 16:54:01 13° ENE
YAOGAN 6 3.2 16:46:16 10° S 16:49:51 60° W 16:53:25 10° NNW
FengYun 1-2 T 4.2 16:49:26 10° SSE 16:54:52 62° ENE 17:00:18 10° N
AQUARIUS 4.1 16:50:26 10° SSE 16:54:55 81° ENE 16:59:26 10° N
Cosmos 2297 4.1 16:50:23 10° NNW 16:56:02 69° WSW 17:01:43 10° SSE
SL-16 R/B 3.1 16:51:52 10° SW 16:57:19 49° WNW 17:02:49 10° NNE
CZ-4B R/B 1.3 16:56:39 10° NNE 16:59:43 52° E 17:02:50 10° S
BREEZE-M DEB (TANK) 3.2 17:00:18 10° W 17:02:31 26° NNW 17:03:26 18° NNE
SMAP 3.4 16:59:18 10° S 17:03:56 71° WSW 17:08:36 10° NNW
USA 215 3.7 16:59:20 15° ENE 17:04:33 44° SE 17:10:42 10° SSW
Cosmos 1500 4.0 17:04:12 10° NNE 17:07:34 28° ENE 17:10:55 10° SE
YAOGAN 1 4.2 17:09:19 16° NE 17:09:19 16° NE 17:10:55 10° NNE
USA 238 DEB 4.1 17:02:40 10° S 17:08:39 40° ESE 17:13:06 18° NE
USA 238 4.1 17:02:46 10° S 17:08:45 39° ESE 17:13:10 18° NE
Cosmos 1151 Rocket 3.8 17:06:47 10° SSW 17:10:58 54° W 17:15:09 10° N
Cosmos 1656 Rocket 4.3 17:07:00 10° N 17:12:05 33° ENE 17:17:04 10° ESE
SL-24 DEB 4.5 17:09:00 10° NNE 17:13:35 48° E 17:18:05 10° SSE
Cosmos 1470 Rocket 3.4 17:10:14 10° N 17:14:34 85° E 17:18:53 10° S
MOS 1 Rocket 4.4 17:13:26 16° NE 17:16:54 30° E 17:21:32 10° SSE
Cosmos 158 Rocket 4.3 17:13:39 10° S 17:18:18 40° ESE 17:20:54 22° NE
Cosmos 1515 Rocket 3.5 17:14:33 10° S 17:18:55 88° ESE 17:23:22 10° N
CZ-2C R/B 3.5 17:15:19 10° SE 17:19:45 33° ENE 17:24:03 10° N
Cosmos 2263 4.3 17:15:35 10° NNW 17:21:02 50° ENE 17:26:27 10° SE
SWAS 4.3 17:16:55 10° SSW 17:21:10 83° ESE 17:24:10 19° NNE
Cosmos 923 Rocket 4.2 17:16:41 10° S 17:21:37 46° ESE 17:24:49 21° NE
Cosmos 482 Debris 3.3 17:22:19 10° WNW 17:23:46 48° WNW 17:23:46 48° WNW
Cosmos 1238 Rocket 3.6 17:22:51 10° NNE 17:26:44 36° E 17:31:19 10° SSE
USA 281 3.6 17:20:47 10° ESE 17:26:44 38° NE 17:32:43 10° N
COSMO-SKYMED 1 2.5 17:23:07 10° NNE 17:27:26 71° E 17:31:46 10° S
YAOGAN 3 4.4 17:23:33 10° SSE 17:27:53 76° ENE 17:32:16 10° N
Nadezhda 3 Rocket 4.1 17:21:59 10° SSE 17:28:10 57° E 17:34:24 10° NNE
Cosmos 1689 Rocket 2.8 17:29:02 36° SE 17:29:02 36° SE 17:31:10 10° S
X-37B 1.1 17:25:53 10° W 17:28:58 47° N 17:29:28 42° NNE
SAR-Lupe-4 3.4 17:29:13 28° NNE 17:30:59 69° ESE 17:34:32 10° S
Helios 1A Rocket 4.5 17:33:26 20° NNE 17:33:26 20° NNE 17:34:56 10° N
Meteor 2-6 Rocket 4.1 17:25:46 10° S 17:31:17 64° E 17:36:42 10° NNE
Cosmos 2228 Rocket 3.1 17:27:04 10° S 17:31:31 56° E 17:34:29 20° NNE
Meteor 1-4 Rocket 4.1 17:29:41 10° SW 17:33:02 36° WNW 17:36:20 10° N
H-2A R/B 2.8 17:35:18 30° NE 17:35:18 30° NE 17:39:06 10° N
Cosmos 1812 2.6 17:31:37 10° S 17:35:23 61° E 17:36:35 39° NNE
USA 267 4.1 17:34:11 26° ENE 17:36:28 32° NNE 17:42:07 10° NW
Cosmos 1939 Rocket 2.8 17:33:19 10° S 17:37:11 83° W 17:41:08 10° NNW
CZ-4 R/B 4.3 17:34:52 10° SSE 17:38:58 68° ENE 17:43:05 10° N
CZ-4 R/B 2.7 17:41:27 24° NNE 17:41:27 24° NNE 17:43:19 10° N
Cosmos 1821 Rocket 3.9 17:33:16 10° N 17:39:31 66° E 17:45:49 10° SSE
Cosmos 2084 4.3 17:36:04 10° S 17:39:33 32° SE 17:39:33 32° SE
Meteor 1-11 Rocket 4.1 17:37:02 10° N 17:42:33 42° ENE 17:48:07 10° SE
BREEZE-M DEB (TANK) 2.1 17:38:59 10° SW 17:42:47 53° SSE 17:42:53 52° SE
IRS-1C Rocket 4.0 17:38:09 10° SSE 17:43:26 84° ENE 17:48:44 10° NNW
PSLV R/B 3.7 17:42:19 38° NNE 17:43:47 72° ESE 17:47:49 10° S
Cosmos 44 Rocket 3.7 17:39:34 10° NNW 17:44:32 44° NE 17:45:09 42° ENE
Cosmos 1933 Rocket 3.9 17:40:11 10° NNW 17:44:38 67° W 17:49:01 10° S
SAR-Lupe-1 4.2 17:46:35 36° N 17:47:55 74° WNW 17:51:30 10° SSW
Lacrosse 4 Rocket 2.4 17:44:24 10° S 17:46:59 30° SSE 17:46:59 30° SSE
Cosmos 1680 Rocket 3.5 17:43:16 10° S 17:48:27 62° ESE 17:50:19 39° NE
SL-24 R/B 4.0 17:49:33 26° N 17:51:30 66° WNW 17:55:06 10° SSW
Cosmos 1603 4.0 17:47:15 10° SW 17:52:49 65° WNW 17:56:56 19° NNE
CZ-2D R/B 3.3 17:50:15 10° S 17:54:03 76° WSW 17:57:54 10° NNW
Cosmos 1943 3.4 17:50:33 10° SSW 17:56:11 69° WNW 17:59:58 22° NNE
Cosmos 2369 Rocket 2.8 17:55:11 10° NNW 18:00:45 57° WSW 18:06:14 10° S
Okean O Rocket 4.4 17:57:54 10° SW 18:01:01 19° W 18:04:11 10° NW
Cosmos 1943 Rocket 3.9 17:56:55 10° NW 18:01:50 33° WSW 18:06:45 10° SSW
Okean-O 2.5 17:57:55 10° SSE 18:02:20 86° E 18:06:48 10° NNW
Meteor 1-5 Rocket 4.3 17:57:05 10° NNW 18:02:59 81° W 18:08:41 10° S
Cosmos 1461 3.2 17:58:33 10° SSW 18:02:44 62° SE 18:02:44 62° SE
CENTAUR R/B 2.3 18:00:41 10° SSW 18:06:20 68° ESE 18:07:44 52° ENE
ISS -1.0 18:05:26 10° NNW 18:05:55 13° NNW 18:05:55 13° NNW
Cosmos 2112 Rocket 3.9 18:03:45 10° SSW 18:09:01 82° ESE 18:09:53 63° NE
NOSS 3-2 (C) 3.1 18:08:59 10° SSW 18:14:29 76° ESE 18:15:10 67° ENE
Meteor 1-27 Rocket 3.5 18:14:28 10° S 18:19:58 82° E 18:20:11 79° ENE
BREEZE-M DEB (TANK) 3.5 18:12:25 10° WSW 18:19:59 59° NW 18:19:59 59° NW
Gblst 52 Del rocket 4.3 18:31:30 10° SW 18:37:18 74° SSW 18:37:18 74° SSW
NOSS 3-2 (A) 4.1 18:34:40 10° WSW 18:40:05 46° NW 18:41:27 40° NNW
USA 215 3.6 18:46:42 53° N 18:47:38 57° NW 18:54:00 10° WSW
USA 238 DEB 4.5 18:53:15 10° WSW 18:59:30 43° NW 19:00:35 40° NNW
USA 238 4.5 18:53:19 10° WSW 18:59:35 44° NW 19:00:38 41° NNW
USA 281 4.2 19:04:58 10° S 19:11:07 42° WSW 19:17:19 10° NW
H-2A R/B 4.0 19:15:55 24° WNW 19:15:55 24° WNW 19:18:33 10° NNW
USA 267 4.2 19:21:33 40° NW 19:21:33 40° NW 19:25:29 10° NW
